This is the latest recevied weather packets stored in our database for station/object BRIVER. If no packets are shown the sender has not sent any weather packets the latest 1 day(s).
| Time | Temp. | Humidity | Pressure | Rain* | Wind** | Luminosity | Snow |
|---|---|---|---|---|---|---|---|
| 1778107528 | 15.56° C | 66% | 1018.1 hPa | 0 mm | - | - | - |
| 1778105970 | 15.56° C | 67% | 1018.2 hPa | 0 mm | - | - | - |
| 1778104350 | 15.56° C | 73% | 1018.1 hPa | 0 mm | - | - | - |
| 1778096789 | 17.22° C | 67% | 1018.2 hPa | 0 mm | - | - | - |
| 1778095709 | 17.22° C | 69% | 1018.4 hPa | 0 mm | - | - | - |
| 1778093009 | 17.22° C | 75% | 1018.8 hPa | 0 mm | - | - | - |
| 1778091390 | 15.56° C | 77% | 1018.9 hPa | 0 mm | - | - | - |
| 1778090428 | 13.89° C | 75% | 1018.8 hPa | 0 mm | - | - | - |
| 1778090128 | 13.89° C | 77% | 1018.9 hPa | 0 mm | - | - | - |
| 1778089828 | 13.89° C | 78% | 1018.8 hPa | 0 mm | - | - | - |
| 1778089528 | 13.89° C | 78% | 1018.8 hPa | 0 mm | - | - | - |
| 1778088928 | 13.33° C | 83% | 1018.9 hPa | 0 mm | - | - | - |
| 1778088689 | 12.78° C | 80% | 1018.8 hPa | 0 mm | - | - | - |
| 1778088628 | 12.78° C | 82% | 1018.9 hPa | 0 mm | - | - | - |
| 1778088328 | 12.22° C | 80% | 1019 hPa | 0 mm | - | - | - |
| 1778088028 | 11.67° C | 79% | 1019 hPa | 0 mm | - | - | - |
| 1778087728 | 11.11° C | 81% | 1018.9 hPa | 0 mm | - | - | - |
| 1778087428 | 10.56° C | 85% | 1018.8 hPa | 0 mm | - | - | - |
| 1778087128 | 10.56° C | 89% | 1018.7 hPa | 0 mm | - | - | - |
| 1778087069 | 10° C | 90% | 1018.7 hPa | 0 mm | - | - | - |
| 1778086828 | 10° C | 93% | 1018.7 hPa | 0 mm | - | - | - |
| 1778086528 | 10.56° C | 90% | 1018.7 hPa | 0 mm | - | - | - |
| 1778086228 | 11.11° C | 88% | 1018.6 hPa | 0 mm | - | - | - |
| 1778085989 | 11.67° C | 86% | 1018.6 hPa | 0 mm | - | - | - |
| 1778085928 | 11.67° C | 85% | 1018.6 hPa | 0 mm | - | - | - |
* Rain latest hour (hover to see other rain measurements)
** Current wind speed in m/s (hover to see current wind gust speed)